Location: Unspecified
(0.0000°N, 0.0000°E)
Time: 11:14:59
(UTC+02:00)

Cosmos 1626 Rocket - Visible Passes

Search period start: 29 March 2017 00:00
Search period end: 08 April 2017 00:00
Orbit: 604 x 630 km, 82.5° (Epoch: 27 March)

Date Brightness Start Highest point End Pass type
(mag) Time Alt. Az. Time Alt. Az. Time Alt. Az.
29 Mar 4.8 06:37:05 10° SSE 06:41:17 43° E 06:45:30 10° NNE visible
30 Mar 3.4 06:53:38 10° S 06:58:04 81° W 07:02:30 10° N visible
31 Mar 4.2 07:10:49 10° SSW 07:14:50 34° W 07:18:52 10° NNW visible
01 Apr 6.1 05:50:50 10° SE 05:54:04 20° E 05:57:18 10° NE visible
01 Apr 5.1 07:28:54 10° SW 07:31:37 16° W 07:34:18 10° NW visible
02 Apr 4.7 06:08:37 24° SSE 06:10:50 43° E 06:15:04 10° NNE visible
03 Apr 3.4 06:27:49 77° NW 06:27:49 77° NW 06:32:03 10° N visible
04 Apr 4.9 06:46:18 24° NW 06:46:18 24° NW 06:48:25 10° NNW visible
